Regional Weather Roundup
Issued by NWS

Home | Current Version | Previous Version | Graphics & Text | Print | Product List | Glossary On
Versions: 1 2 3 4 5 6 7 8 9 10 11 12 13 14 15 16 17 18 19 20 21 22 23 24 25 26 27 28 29 30 31 32 33 34 35 36 37 38 39 40 41 42 43 44 45 46 47 48 49 50
000
ASUS44 KMEG 260710
RWRTN
TENNESSEE HOURLY STATE WEATHER ROUNDUP
NATIONAL WEATHER SERVICE MEMPHIS TN
200 AM CDT SUN APR 26 2015

TNZ002-004-019-021-049-052-054-088>092-260800-
WEST TENNESSEE

CITY           SKY/WX    TMP DP  RH WIND       PRES   REMARKS
MEMPHIS INTL   CLEAR     66  56  70 NW7       29.64R
NWS MEMPHIS      N/A     65 N/A N/A MISG        N/A
JACKSON        CLEAR     59  54  83 CALM      29.64S
DYERSBURG      MOCLDY    59  46  63 CALM      29.66S
UNION CITY     CLOUDY    61  32  33 N5        29.65R
PARIS          CLOUDY    57  55  94 CALM      29.64S
LEXINGTON      CLEAR     57  55  94 CALM      29.62F
SAVANNAH       CLEAR     64  32  29 CALM      29.63F
$$

TNZ008-025-027-028-033-062-065-066-260800-
NORTH MIDDLE TENNESSEE

CITY           SKY/WX    TMP DP  RH WIND       PRES   REMARKS
NASHVILLE      CLOUDY    61  59  93 CALM      29.61S
CLARKSVILLE    CLOUDY    61  59  93 NW7       29.62S
SMYRNA         MOCLDY    61  60  96 CALM      29.62S
COOKEVILLE     PTCLDY    61  59  94 CALM      29.59F
CROSSVILLE     CLOUDY    59  55  87 W8        29.62F
$$

TNZ061-075-076-078-094-096-097-260800-
SOUTH MIDDLE TENNESSEE

CITY           SKY/WX    TMP DP  RH WIND       PRES   REMARKS
FAYETTEVILLE   MOCLDY    64  63  94 N14       29.62R
TULLAHOMA      CLEAR     59  57  94 CALM      29.63S
WINCHESTER     CLOUDY    63  61  94 N5        29.64R
MCMINNVILLE    MOCLDY    61  61 100 CALM      29.62F
COLUMBIA       PTCLDY    61  32  33 CALM      29.61F
SHELBYVILLE    PTCLDY    61  59  94 CALM      29.62F
$$

TNZ017-018-042-046-047-260800-
NORTHEAST TENNESSEE

CITY           SKY/WX    TMP DP  RH WIND       PRES   REMARKS
TRI CITIES     CLOUDY    60  57  89 W7        29.56R
ELIZABETHTON   CLOUDY    55  55 100 W6        29.57R
$$

TNZ012-013-036-069-073-074-260800-
CENTRAL EAST TENNESSEE

CITY           SKY/WX    TMP DP  RH WIND       PRES   REMARKS
KNOXVILLE      CLOUDY    61  58  90 SW9       29.59S
OAK RIDGE      CLOUDY    62  59  90 VRB6      29.58F
GATLINBURG     CLOUDY    61  57  88 SW3       29.58F
MORRISTOWN     PTSUNNY   61  59  94 SW6       29.59S
$$

TNZ083-085-099-260800-
SOUTHEAST TENNESSEE

CITY           SKY/WX    TMP DP  RH WIND       PRES   REMARKS
CHATTANOOGA    MOCLDY    69  64  84 S6        29.59F
$$

SKY/WX REPORTED AS FAIR MEANS FEW OR NO CLOUDS BELOW
12 THOUSAND FEET.



USA.gov is the U.S. government's official web portal to all federal, state and local government web resources and services.